EDT,Max TemperatureF,Mean TemperatureF,Min TemperatureF,Max Dew PointF,MeanDew PointF,Min DewpointF,Max Humidity, Mean Humidity, Min Humidity, Max Sea Level PressureIn, Mean Sea Level PressureIn, Min Sea Level PressureIn, Max VisibilityMiles, Mean VisibilityMiles, Min VisibilityMiles, Max Wind SpeedMPH, Mean Wind SpeedMPH, Max Gust SpeedMPH,PrecipitationIn, CloudCover, Events, WindDirDegrees
2012-10-1,65,53,41,51,44,38,96,74,51,29.96,29.90,29.84,10,10,8,14,4,21,0.05,1,Rain,78
2012-10-2,65,59,53,59,55,50,97,85,73,29.90,29.84,29.79,10,8,3,17,9,23,0.23,8,Rain,51
2012-10-3,65,62,58,59,56,53,97,82,67,30.09,30.00,29.88,10,7,1,14,5,17,0.01,7,Rain,195
2012-10-4,76,66,55,53,51,49,86,62,38,30.13,30.08,30.03,10,10,10,17,9,23,0.00,2,,211
2012-10-5,67,55,43,55,48,39,100,80,59,30.10,30.05,30.01,10,9,4,15,8,21,0.46,8,Rain,250
2012-10-6,53,45,37,43,36,31,96,70,44,30.14,30.06,29.99,10,10,9,23,10,31,0.00,6,,261
2012-10-7,50,45,40,38,36,32,86,68,50,30.17,30.13,30.10,10,10,10,18,6,23,0.00,8,,264
2012-10-8,54,42,29,36,30,25,92,64,35,30.24,30.19,30.12,10,10,9,14,3,20,0.00,1,,204
2012-10-9,62,49,35,38,34,30,92,64,35,30.14,30.04,29.89,10,9,4,20,9,28,0.00,0,,193
2012-10-10,52,43,33,43,36,26,89,67,45,30.20,29.98,29.83,10,10,10,29,12,39,0.03,6,Rain,265
2012-10-11,60,45,30,34,29,27,85,57,29,30.25,30.17,30.08,10,10,8,24,10,32,0.00,0,,227
2012-10-12,53,42,31,38,30,22,89,60,30,30.44,30.35,30.18,10,10,10,20,7,25,0.00,3,,31
2012-10-13,65,48,31,59,42,28,93,70,47,30.37,30.13,29.92,10,9,2,17,6,25,0.13,5,Rain,155
2012-10-14,71,63,54,61,58,49,87,74,61,29.91,29.71,29.51,10,10,7,36,16,49,0.02,5,Rain,203
2012-10-15,54,51,47,48,43,36,93,77,61,29.95,29.82,29.63,10,10,5,28,12,35,T,8,Rain,280
2012-10-16,61,49,37,40,36,34,85,61,36,30.01,29.91,29.77,10,10,9,13,5,18,0.01,4,Rain,232
2012-10-17,74,64,54,55,46,41,86,60,33,29.76,29.68,29.55,10,10,6,24,10,33,0.11,6,Rain,181
2012-10-18,62,55,47,53,43,31,86,59,32,29.68,29.53,29.39,10,9,2,28,11,38,0.23,5,Rain,199
2012-10-19,55,50,45,44,41,35,92,73,54,29.64,29.60,29.56,10,10,6,18,6,26,0.19,8,Rain,187
2012-10-20,54,48,42,45,43,41,92,79,66,29.94,29.73,29.60,10,10,4,22,11,28,0.01,8,Rain,239
2012-10-21,61,50,38,43,40,37,100,73,46,30.12,30.07,29.95,10,10,7,14,5,17,0.00,2,,226
2012-10-22,73,57,40,56,47,38,93,70,46,30.10,30.05,29.96,10,10,7,12,3,16,0.09,2,,194
2012-10-23,70,65,59,58,56,53,90,78,66,30.02,29.97,29.92,10,10,8,18,7,22,0.02,6,Rain-Thunderstorm,213
2012-10-24,77,69,60,58,56,52,90,70,50,30.04,30.01,29.97,10,9,5,16,6,22,0.04,3,Rain,199
2012-10-25,77,66,55,54,52,50,83,62,40,30.01,29.94,29.88,10,10,10,22,9,31,0.00,0,,183
2012-10-26,68,57,45,54,41,34,89,74,58,30.24,30.12,29.87,10,10,9,24,10,31,0.03,7,Rain,327
2012-10-27,54,47,39,36,33,30,79,60,41,30.21,30.17,30.12,10,10,10,20,11,26,0.00,5,,360
2012-10-28,52,45,37,33,29,26,76,61,46,30.19,30.14,30.10,10,10,10,25,15,33,0.00,5,,9
2012-10-29,43,40,37,29,27,22,64,55,45,30.09,29.97,29.70,10,10,10,35,20,49,T,8,,345
2012-10-30,41,38,34,36,32,28,92,83,73,29.67,29.52,29.45,10,8,4,30,20,45,0.39,8,Rain-Snow,329
2012-10-31,42,39,36,37,35,33,86,81,76,29.71,29.62,29.54,10,9,4,18,12,25,0.01,8,Rain,301